Location: Albuquerque Trailhead
(34.7934°N, 106.3736°W)
Time: 00:56:33
(UTC+00:00)

Cosmos 2123 Rocket - Pass Details

Date: 20 June 2021
Orbit: 961 x 992 km, 82.9° (Epoch: 27 July)

Event Time Altitude Azimuth Distance (km) Brightness Sun altitude
Exits shadow 04:03:20 27° 142° (SE) 1,805 4.8 -17.3°
Maximum altitude 04:06:16 43° 90° (E) 1,358 4.4 -17.7°
Drops below altitude 10° 04:12:10 10° 21° (NNE) 2,758 6.7 -18.5°
Sets 04:14:49 0° 15° (NNE) 3,712 7.5 -18.9°
